Regional Weather Roundup
Issued by NWS

Home | Current Version | Previous Version | Text Only | Print | Product List | Glossary On
Versions: 1 2 3 4 5 6 7 8 9 10 11 12 13 14 15 16 17 18 19 20 21 22 23 24 25 26 27
000
ASUS45 KSLC 020310
RWRUT

UTAH REGIONAL WEATHER ROUNDUP
NATIONAL WEATHER SERVICE SALT LAKE CITY UT
900 PM MDT SUN MAY 01 2016

UTZ001>011-023>025-020400-

NORTHERN UTAH

CITY           SKY/WX    TMP DP  RH WIND       PRES   REMARKS
BRIGHAM CITY   PTCLDY    55  22  27 E23G30    30.10R
HILL AFB       MOCLDY    51  24  34 E21G29    30.08R
LOGAN          CLEAR     54  24  31 E20G28    30.12R
OGDEN          MOCLDY    53  24  32 E16G28    30.07R
PROVO AIRPORT  PTCLDY    55  27  33 VRB5      30.04R
SALT LAKE CITY MOCLDY    59  25  27 E8        30.04R
VERNAL         CLEAR     47  24  40 NW9       30.13R
WENDOVER       PTCLDY    54  27  35 N6        30.09R
HEBER CITY     PTCLDY    46  27  46 N9        30.09R

$$

UTZ012>022-026-027-020400-

SOUTHERN/CENTRAL UTAH

CITY           SKY/WX    TMP DP  RH WIND       PRES   REMARKS
BLANDING       CLOUDY    42  39  90 NE6       30.20R
BRYCE CANYON   LGT RAIN  40  35  83 SE6       30.14R
CEDAR CITY     CLOUDY    47  37  68 SE12      30.06R
DELTA          CLOUDY    54  32  43 N8        30.05R
HANKSVILLE     MOCLDY    57  30  35 E3        30.08R
MILFORD        CLOUDY    56  35  45 SE6       30.04R
MOAB/CYNLANDS  CLOUDY    55  38  52 S12       30.06R
PRICE          MOCLDY    48  26  42 NE7       30.10R
ST GEORGE      PTCLDY    63  43  48 E3        30.00R
KANAB          PTCLDY    52  37  58 NE3       30.12R

$$

REGIONAL REPORTS     COLORADO/ARIZONA

CITY           SKY/WX    TMP DP  RH WIND       PRES   REMARKS
CRAIG, CO      CLOUDY    47  27  45 E10       30.09R
GRAND JUNCTION CLOUDY    52  36  54 SE17G23   30.08R
RIFLE          LGT RAIN  47  39  74 S8        30.11R
MONTROSE       LGT RAIN  47  34  60 E8        30.16R
CORTEZ         CLOUDY    43  37  79 NE5       30.15R
PAGE, AZ       PTCLDY    54  38  54 E3        30.07R
GRAND CANYON   PTCLDY    44  34  67 CALM      30.11R
KINGMAN        PTCLDY    58  32  37 SE8       29.99R
FLAGSTAFF      PTCLDY    37  36  96 CALM      30.13R FOG

$$

REGIONAL REPORTS    NEVADA/IDAHO/WYOMING

CITY           SKY/WX    TMP DP  RH WIND       PRES   REMARKS
LAS VEGAS, NV  PTCLDY    71  38  29 SW3       29.89R
ELY            CLOUDY    44  32  62 N7        30.10R
ELKO           PTCLDY    53  30  41 NE8       30.08R
POCATELLO, ID  CLEAR     56  27  32 S9        30.09R
BURLEY         CLEAR     54  31  41 S7        30.07R
EVANSTON, WY   CLOUDY    38  22  52 E13       30.18R WCI  30
ROCK SPRINGS   CLEAR     37  24  59 NE20      30.21R WCI  27
KEMMERER         N/A     34  23  64 E14G23    30.22R WCI  24

$$




USA.gov is the U.S. government's official web portal to all federal, state and local government web resources and services.